Date String (YYYY-MM-DD hh:mm:ss) UTC,Instrument flags,Ambient pressure (hPa),Sample flow (lpm),Bypass flow (lpm),Sample temperature (°C),Ambient temperature (°C),ASC tube jacket temperature (°C),LED temperature (°C),Box temperature (°C),Sample RH (%),Span deviation,Mass concentration (μg/m³),Mass concentration (μg/m³),Mass concentration (μg/m³)
DateTimeUTC,F1_M11,P_M11,Q1_M11,Q2_M11,T1_M11,T2_M11,T3_M11,T4_M11,T5_M11,U1_M11,ZSPAN_M11,X2_M11,X0_M11,X1_M11
2023-04-12 14:00:00,,0826.2,5.01,0.00,28.1,26.4,00.0,36.4,29.6,11.8,0000.0,0003.50,0010.71,0002.28
2023-04-12 14:01:00,,0826.2,5.00,0.00,28.1,26.4,00.0,36.4,29.6,10.5,0000.0,0003.49,0010.77,0002.27
2023-04-12 14:02:00,,0826.2,5.00,0.00,28.1,26.4,00.0,36.4,29.7,11.1,0000.0,0003.51,0010.87,0002.26
2023-04-12 14:03:00,,0826.2,5.00,0.00,28.1,26.5,00.0,36.4,29.7,09.7,0000.0,0003.49,0010.85,0002.24
2023-04-12 14:04:00,,0826.3,4.99,0.00,28.1,26.5,00.0,36.4,29.7,09.5,0000.0,0003.48,0011.13,0002.24
2023-04-12 14:05:00,,0826.2,4.99,0.00,28.1,26.5,00.0,36.4,29.7,09.6,0000.0,0003.50,0011.27,0002.24
2023-04-12 14:06:00,,0826.2,5.00,0.00,28.1,26.5,00.0,36.4,29.7,09.4,0000.0,0003.52,0011.69,0002.20
2023-04-12 14:07:00,,0826.2,5.01,0.00,28.1,26.5,00.0,36.4,29.7,09.6,0000.0,0003.53,0011.91,0002.20
2023-04-12 14:08:00,,0826.2,5.01,0.00,28.1,26.5,00.0,36.4,29.7,09.3,0000.0,0003.54,0011.39,0002.19
2023-04-12 14:09:00,,0826.2,5.00,0.00,28.1,26.5,00.0,36.4,29.7,09.1,0000.0,0003.56,0010.88,0002.19
2023-04-12 14:10:00,,0826.2,5.00,0.00,28.1,26.5,00.0,36.4,29.7,09.8,0000.0,0003.56,0010.38,0002.20
2023-04-12 14:11:00,,0826.2,4.99,0.00,28.1,26.6,00.0,36.4,29.7,11.2,0000.0,0003.53,0010.17,0002.18
2023-04-12 14:12:00,,0826.2,5.00,0.00,28.1,26.6,00.0,36.4,29.7,11.0,0000.0,0003.49,0010.04,0002.17
2023-04-12 14:13:00,,0826.2,5.00,0.00,28.2,26.6,00.0,36.4,29.7,11.1,0000.0,0003.47,0009.98,0002.20
2023-04-12 14:14:00,,0826.2,5.00,0.00,28.2,26.6,00.0,36.4,29.7,11.3,0000.0,0003.49,0009.93,0002.21
2023-04-12 14:15:00,,0826.2,5.00,0.00,28.2,26.6,00.0,36.4,29.7,11.1,0000.0,0003.50,0009.61,0002.20
2023-04-12 14:16:00,,0826.2,5.01,0.00,28.2,26.6,00.0,36.4,29.7,10.8,0000.0,0003.51,0010.02,0002.20
2023-04-12 14:17:00,,0826.2,5.00,0.00,28.2,26.6,00.0,36.4,29.8,10.6,0000.0,0003.48,0009.89,0002.19
2023-04-12 14:18:00,,0826.2,5.00,0.00,28.2,26.6,00.0,36.5,29.8,10.3,0000.0,0003.50,0009.33,0002.18
2023-04-12 14:19:00,,0826.3,5.00,0.00,28.2,26.6,00.0,36.5,29.8,10.2,0000.0,0003.53,0009.47,0002.18
2023-04-12 14:20:00,,0826.2,5.00,0.00,28.2,26.6,00.0,36.5,29.8,10.3,0000.0,0003.53,0009.63,0002.19
2023-04-12 14:21:00,,0826.2,5.00,0.00,28.2,26.6,00.0,36.5,29.8,10.2,0000.0,0003.59,0009.35,0002.20
2023-04-12 14:22:00,,0826.2,4.99,0.00,28.2,26.6,00.0,36.5,29.8,09.9,0000.0,0003.60,0009.40,0002.21
2023-04-12 14:23:00,,0826.2,5.00,0.00,28.2,26.7,00.0,36.5,29.8,10.2,0000.0,0003.63,0009.51,0002.22
2023-04-12 14:24:00,,0826.2,5.00,0.00,28.2,26.7,00.0,36.5,29.8,10.4,0000.0,0003.65,0010.12,0002.21
2023-04-12 14:25:00,,0826.1,4.99,0.00,28.2,26.7,00.0,36.5,29.8,10.1,0000.0,0003.61,0010.15,0002.20
2023-04-12 14:26:00,,0826.2,5.00,0.00,28.3,26.7,00.0,36.5,29.8,10.1,0000.0,0003.58,0010.14,0002.19
2023-04-12 14:27:00,,0826.1,5.00,0.00,28.3,26.7,00.0,36.5,29.8,09.9,0000.0,0003.57,0009.58,0002.19
2023-04-12 14:28:00,,0826.2,4.99,0.00,28.3,26.7,00.0,36.5,29.9,09.8,0000.0,0003.60,0009.47,0002.21
2023-04-12 14:29:00,,0826.2,5.00,0.00,28.3,26.7,00.0,36.6,29.9,09.8,0000.0,0003.59,0009.84,0002.20
2023-04-12 14:30:00,,0826.1,5.01,0.00,28.3,26.8,00.0,36.6,29.9,09.9,0000.0,0003.56,0010.06,0002.20
2023-04-12 14:31:00,,0826.1,5.00,0.00,28.3,26.8,00.0,36.6,29.9,09.8,0000.0,0003.56,0010.00,0002.19
2023-04-12 14:32:00,,0826.1,5.00,0.00,28.3,26.8,00.0,36.6,29.9,09.5,0000.0,0003.52,0009.96,0002.17
2023-04-12 14:33:00,,0826.0,5.01,0.00,28.3,26.8,00.0,36.6,30.0,09.5,0000.0,0003.55,0010.11,0002.14
2023-04-12 14:34:00,,0826.0,5.02,0.00,28.3,26.8,00.0,36.6,29.9,09.6,0000.0,0003.60,0010.51,0002.14
2023-04-12 14:35:00,,0826.0,4.99,0.00,28.3,26.8,00.0,36.6,29.9,09.5,0000.0,0003.60,0010.26,0002.14
2023-04-12 14:36:00,,0826.0,5.00,0.00,28.3,26.8,00.0,36.6,30.0,09.6,0000.0,0003.64,0010.49,0002.14
2023-04-12 14:37:00,,0826.0,4.99,0.00,28.3,26.9,00.0,36.6,30.0,09.0,0000.0,0003.64,0010.93,0002.15
2023-04-12 14:38:00,,0826.1,5.00,0.00,28.4,26.9,00.0,36.6,30.0,09.1,0000.0,0003.63,0010.79,0002.15
2023-04-12 14:39:00,,0826.1,5.01,0.00,28.4,26.9,00.0,36.6,30.0,09.1,0000.0,0003.59,0010.52,0002.14
2023-04-12 14:40:00,,0826.0,5.01,0.00,28.4,26.9,00.0,36.7,30.0,09.5,0000.0,0003.57,0010.54,0002.14
2023-04-12 14:41:00,,0826.0,5.01,0.00,28.4,26.9,00.0,36.7,30.0,09.9,0000.0,0003.62,0011.20,0002.15
2023-04-12 14:42:00,,0826.0,5.00,0.00,28.4,26.9,00.0,36.7,30.0,09.8,0000.0,0003.58,0010.94,0002.15
2023-04-12 14:43:00,,0826.0,5.00,0.00,28.4,26.9,00.0,36.7,30.1,09.9,0000.0,0003.62,0011.84,0002.16
2023-04-12 14:44:00,,0826.0,5.00,0.00,28.4,26.9,00.0,36.7,30.1,09.9,0000.0,0003.63,0011.98,0002.19
2023-04-12 14:45:00,,0826.0,5.00,0.00,28.4,27.0,00.0,36.7,30.1,09.9,0000.0,0003.56,0011.55,0002.18
2023-04-12 14:46:00,,0826.0,5.00,0.00,28.4,27.0,00.0,36.7,30.1,10.2,0000.0,0003.60,0011.77,0002.19
2023-04-12 14:47:00,,0825.9,4.99,0.00,28.4,27.0,00.0,36.7,30.0,09.9,0000.0,0003.60,0011.96,0002.20
2023-04-12 14:48:00,,0825.9,5.00,0.00,28.4,27.0,00.0,36.7,30.0,09.6,0000.0,0003.60,0011.48,0002.20
2023-04-12 14:49:00,,0825.9,5.00,0.00,28.5,27.0,00.0,36.7,30.0,09.5,0000.0,0003.63,0011.63,0002.21
2023-04-12 14:50:00,,0825.9,5.00,0.00,28.5,27.0,00.0,36.7,30.1,09.6,0000.0,0003.63,0011.53,0002.21
2023-04-12 14:51:00,,0825.9,5.01,0.00,28.5,27.0,00.0,36.7,30.2,09.7,0000.0,0003.69,0011.31,0002.23
2023-04-12 14:52:00,,0826.0,5.00,0.00,28.5,27.1,00.0,36.8,30.2,09.4,0000.0,0003.64,0010.04,0002.24
2023-04-12 14:53:00,,0826.0,5.01,0.00,28.5,27.1,00.0,36.8,30.2,09.1,0000.0,0003.71,0011.37,0002.24
2023-04-12 14:54:00,,0825.9,5.00,0.00,28.5,27.1,00.0,36.8,30.2,09.5,0000.0,0003.68,0010.83,0002.24
2023-04-12 14:55:00,,0825.9,5.00,0.00,28.5,27.1,00.0,36.8,30.2,09.7,0000.0,0003.66,0011.28,0002.24
2023-04-12 14:56:00,,0825.9,5.00,0.00,28.5,27.1,00.0,36.8,30.2,10.0,0000.0,0003.72,0012.05,0002.27
2023-04-12 14:57:00,,0825.9,4.99,0.00,28.6,27.1,00.0,36.8,30.2,10.1,0000.0,0003.71,0012.11,0002.29
2023-04-12 14:58:00,,0825.9,5.00,0.00,28.6,27.1,00.0,36.8,30.2,10.0,0000.0,0003.69,0011.38,0002.30
2023-04-12 14:59:00,,0825.9,5.00,0.00,28.6,27.2,00.0,36.8,30.2,10.3,0000.0,0003.72,0011.96,0002.32
